WB7UVH Weather Reports


Display with metric or nautical units.
time (UTC)temp
F
wind
direction
speed
MPH
gust
MPH
rain 1hr
in
rain 24hr
in
rain mn
in
humidity
%
barometer
mb
20260509041504 59 278 0.0 0.0 0.00 0.00 0.00 72 1026.3
20260509034503 59 278 0.0 1.0 0.00 0.00 0.00 72 1026.0
20260509031504 60 278 0.0 3.0 0.00 0.00 0.00 69 1025.7
20260509030004 61 277 0.0 2.0 0.00 0.00 0.00 68 1025.5
20260509023004 62 255 0.0 6.0 0.00 0.00 0.00 64 1025.5
20260509021504 62 264 2.0 8.0 0.00 0.00 0.00 64 1025.6
20260509020005 63 303 1.0 8.0 0.00 0.00 0.00 63 1025.5
20260509014503 63 266 1.0 7.0 0.00 0.00 0.00 65 1025.5
20260509013004 64 261 0.0 7.0 0.00 0.00 0.00 59 1025.6
20260509010004 64 239 2.0 7.0 0.00 0.00 0.00 55 1025.8
20260509004504 64 273 1.0 7.0 0.00 0.00 0.00 56 1025.7
20260509003004 65 249 0.0 7.0 0.00 0.00 0.00 57 1025.8
20260509000004 65 263 2.0 9.0 0.00 0.00 0.00 54 1025.9
20260508234503 65 257 1.0 5.0 0.00 0.00 0.00 53 1025.9
20260508233004 66 266 2.0 9.0 0.00 0.00 0.00 50 1025.9
20260508231504 67 160 0.0 5.0 0.00 0.00 0.00 50 1026.0
20260508223004 67 217 0.0 12.0 0.00 0.00 0.00 49 1026.0
20260508221504 67 181 1.0 13.0 0.00 0.00 0.00 47 1026.1
20260508220004 68 257 1.0 9.0 0.00 0.00 0.00 51 1026.1
20260508214503 67 240 4.0 12.0 0.00 0.00 0.00 49 1026.2
20260508211503 67 276 0.0 12.0 0.00 0.00 0.00 49 1026.1
20260508210004 66 244 1.0 9.0 0.00 0.00 0.00 52 1026.2
20260508204503 66 194 0.0 10.0 0.00 0.00 0.00 54 1026.2
20260508203004 65 124 2.0 6.0 0.00 0.00 0.00 59 1026.4
20260508201503 64 253 4.0 8.0 0.00 0.00 0.00 57 1026.5
20260508200005 64 150 1.0 7.0 0.00 0.00 0.00 56 1026.5
20260508191505 62 191 2.0 12.0 0.00 0.00 0.00 59 1026.9
20260508190005 62 258 1.0 7.0 0.00 0.00 0.00 59 1026.9
20260508184505 61 273 0.0 12.0 0.00 0.00 0.00 66 1026.9
20260508181505 60 243 1.0 12.0 0.00 0.00 0.00 64 1026.7
20260508180005 59 260 7.0 14.0 0.00 0.00 0.00 64 1026.6
20260508173004 58 235 5.0 14.0 0.00 0.00 0.00 66 1026.2
20260508171505 57 244 0.0 8.0 0.00 0.00 0.00 67 1025.8
20260508164505 56 231 1.0 12.0 0.00 0.00 0.00 71 1025.8
20260508161504 54 231 1.0 6.0 0.00 0.00 0.00 73 1025.7
20260508160005 53 248 2.0 8.0 0.00 0.00 0.00 75 1025.5
20260508154505 53 245 4.0 9.0 0.00 0.00 0.00 74 1025.8
20260508153005 53 271 3.0 12.0 0.00 0.00 0.00 75 1025.9
20260508151504 53 248 8.0 15.0 0.00 0.00 0.00 75 1026.2